Location: Saratoga Springs
(43.0831°N, 73.7850°W)
Time: 16:56:57
(UTC-04:00)

Vanguard 2 - Pass Details

Date: 22 April 2024
Orbit: 553 x 2914 km, 32.9° (Epoch: 19 May)

Event Time Altitude Azimuth Distance (km) Brightness Sun altitude
Rises 23:34:48 0° 196° (SSW) 4,911 - -31.4°
Reaches altitude 10° 23:38:41 10° 182° (S) 4,293 - -31.7°
Maximum altitude 23:47:31 23° 136° (SE) 4,016 - -32.2°
Exits shadow 23:53:55 18° 107° (ESE) 4,754 11.2 -32.6°
Drops below altitude 10° 23:58:39 10° 93° (E) 5,572 11.7 -32.8°
Sets 00:04:40 0° 82° (E) 6,737 12.3 -33.1°
